Flag for U.S.A. Weather past 2 weeks in Lancaster, California, U.S.A.

Now
43 °F

Clear.


Feels Like: 41 °F
Forecast: 47 / 85 °F
Wind: 3 mph from West

Location: Lancaster / Fox Field

Current Time: Apr 28, 2015 at 7:31:46 AM

Latest Report: Apr 28, 2015 at 6:56 AM


Visibility: 10 mi

Pressure: 30.06 "Hg

Humidity: 53%

Dew point: 27 °F

Location of LancasterLocation

Historic Weather in Lancaster — Graph

°F

Lancaster temperature yesterday

Maximum temperature yesterday: 80 °F (at 3:56 PM)
Minimum temperature yesterday: 41 °F (at 4:56 AM)
Average temperature yesterday: 62 °F

Past Weeks' High & Low Weather Summary

 TemperatureHumidityPressure
High85 °F (Apr 19, 2:56 PM)80% (Apr 24, 8:56 PM)30.17 "Hg (Apr 24, 8:56 PM)
Low34 °F (Apr 15, 6:56 AM)7% (Apr 16, 4:56 PM)29.75 "Hg (Apr 20, 1:56 PM)
Average60 °F39%29.95 "Hg
* Reported Apr 13 5:56 AM — Apr 28 5:56 AM, Lancaster, Weather by CustomWeather, © 2015

Note: Actual official high and low records may vary slightly from our data, if they occured in-between our weather recording intervals... More about our weather records

Advertising

Lancaster weather history for previous 24 hours

 ConditionsComfort  
Time TempWeatherWind HumidityBarometerVisibility
5:56 AM
Tue, Apr 28
40 °FClear.3 mph47%30.04 "Hg10 mi
4:56 AM42 °FClear.5 mph39%30.03 "Hg10 mi
3:56 AM45 °FClear.No wind34%30.03 "Hg10 mi
2:56 AM49 °FClear.No wind35%30.02 "Hg10 mi
1:56 AM50 °FClear.5 mph32%30.03 "Hg10 mi
12:56 AM50 °FClear.6 mph28%30.04 "Hg10 mi
11:56 PM
Mon, Apr 27
49 °FClear.6 mph28%30.03 "Hg10 mi
10:56 PM51 °FClear.8 mph21%30.03 "Hg10 mi
9:56 PM54 °FClear.6 mph19%30.01 "Hg10 mi
8:56 PM62 °FClear.No wind14%29.99 "Hg10 mi
7:56 PM69 °FSunny.6 mph12%29.97 "Hg10 mi
6:56 PM75 °FSunny.8 mph10%29.96 "Hg10 mi
5:56 PM78 °FSunny.14 mph8%29.95 "Hg10 mi
4:56 PM80 °FSunny.14 mph8%29.96 "Hg10 mi
3:56 PM80 °FSunny.12 mph8%29.98 "Hg10 mi
2:56 PM78 °FSunny.18 mph9%29.98 "Hg10 mi
1:56 PM78 °FSunny.17 mph9%30.00 "Hg10 mi
12:56 PM76 °FSunny.13 mph12%30.01 "Hg10 mi
11:56 AM73 °FSunny.21 mph13%30.04 "Hg10 mi
10:56 AM71 °FSunny.20 mph15%30.07 "Hg10 mi
9:56 AM68 °FSunny.22 mph17%30.08 "Hg10 mi
8:56 AM65 °FSunny.14 mph19%30.09 "Hg10 mi
7:56 AM52 °FSunny.No wind50%30.11 "Hg10 mi
Weather by CustomWeather, © 2015

See weather overviewHow to use our weather pages